718  
ASUS41 KOKX 260904  
RWROKX  
 
REGIONAL WEATHER ROUNDUP  
NATIONAL WEATHER SERVICE NEW YORK NY  
500 AM EDT SUN JUN 26 2016  
 
NOTE: "FAIR" INDICATES FEW OR NO CLOUDS BELOW 12,000 FEET WITH NO  
SIGNIFICANT WEATHER AND/OR S TO VISIBILITY
.  
 
NYZ071-072-176-178-NJZ106-104-261000-  
NEW YORK CITY METRO AREA  
 
 
CITY SKY/WX TMP DP RH WIND PRES REMARKS
 
CENTRAL PARK PTCLDY 69 55 60 W3 30.25F  
LAGUARDIA APRT PTCLDY 70 58 65 S3 30.22S  
KENNEDY INTL PTCLDY 67 57 70 W5 30.24S  
NEWARK/LIBERTY PTCLDY 67 59 75 S3 30.23S  
BRNX BOT. GARD N/A 63 57 82 NE3 30.23F  
TETERBORO CLEAR 65 60 84 CALM 30.22F  

 
 
NYZ177-179-078>081-261000-  
LONG ISLAND NEW YORK  
 
CITY SKY/WX TMP DP RH WIND PRES REMARKS
 
FARMINGDALE PTCLDY 63 58 83 CALM 30.23F  
ISLIP PTCLDY 59 56 89 CALM 30.23F  
SHIRLEY PTCLDY 55 53 93 CALM 30.24F  
RIVERHEAD NOT AVBL  
WESTHAMPTON CLEAR 49 45 86 CALM 30.26S  
SOUTHAMPTON N/A 59 57 94 W1 30.20F  
BRIDGEHAMPTON NOT AVBL  
EAST HAMPTON FAIR 51 49 93 CALM 30.23F  
MONTAUK POINT N/A 55 52 89 CALM 30.24F  

 
 
NYZ052-065-067-261000-  
HUDSON VALLEY  
 
CITY SKY/WX TMP DP RH WIND PRES REMARKS
 
WHITE PLAINS CLEAR 61 57 87 CALM 30.23F  
NEWBURGH CLEAR 63 50 63 CALM 30.24F  
MONTGOMERY CLEAR 56 53 90 CALM 30.22F  
POUGHKEEPSIE CLEAR 61 52 72 CALM 30.21F  
ALBANY PTCLDY 67 51 56 S8 30.20R  

 
 
NJZ001-105-106-008-010-013-015-019>022-104-261000-  
NEW JERSEY  
 
CITY SKY/WX TMP DP RH WIND PRES REMARKS
 
NEWARK/LIBERTY PTCLDY 67 59 75 S3 30.23S  
TETERBORO CLEAR 65 60 84 CALM 30.22F  
CALDWELL CLEAR 60 53 77 CALM 30.23F  
MORRISTOWN CLEAR 54 52 94 CALM 30.23F  
SOMERVILLE CLEAR 56 53 90 CALM 30.22F  
SUSSEX CLEAR 57 54 89 CALM 30.23F  
ANDOVER N/A 57 53 86 CALM 30.23F  
TRENTON CLEAR 61 54 77 CALM 30.23F  
MILLVILLE PTCLDY 56 54 93 CALM 30.24R  
ATLANTIC CITY PTCLDY 56 55 97 CALM 30.24R  
WRIGHTSTOWN CLOUDY 58 56 91 CALM 30.22S  
TOMS RIVER NOT AVBL  
BELMAR PTCLDY 61 57 88 CALM 30.25S  

 
 
PAZ047>061-062-071-261000-  
EASTERN PENNSYLVANIA  
 
CITY SKY/WX TMP DP RH WIND PRES REMARKS
 
PHILADELPHIA CLOUDY 65 58 78 SE5 30.24S  
ALLENTOWN CLEAR 61 55 81 CALM 30.23F  
SCRANTON CLEAR 63 56 78 E7 30.22S  

 
 
CTZ002-004>006-009-010-012-RIZ004-006-007-MAZ004-011-015-261000-  
SOUTHERN NEW ENGLAND  
IN CT  
 
CITY SKY/WX TMP DP RH WIND PRES REMARKS
 
BRADLEY INTL PTCLDY 56 51 84 NE3 30.22F  
HARTFORD CLEAR 61 56 83 CALM 30.23F  
DANBURY CLEAR 56 53 90 SW5 30.25F  
WTRBRY/OXFORD N/A 57 52 82 CALM 30.26F  
BRIDGEPORT CLEAR 64 56 75 CALM 30.23F  
MERIDEN CLEAR 56 52 86 CALM 30.24F  
NEW HAVEN CLEAR 58 54 86 CALM 30.24F  
CHESTER FAIR 57 54 88 CALM 30.24F  
GROTON PTCLDY 55 55 100 N3 30.23F  
WILLIMANTIC CLEAR 55 50 83 CALM 30.24F  
 
IN RI  
 
CITY SKY/WX TMP DP RH WIND PRES REMARKS
 
PROVIDENCE PTCLDY 58 54 86 CALM 30.24S  
BLOCK ISLAND CLEAR 58 54 86 CALM 30.24S  
WESTERLY CLEAR 53 48 83 CALM 30.24S  
 
IN MA  
 
CITY SKY/WX TMP DP RH WIND PRES REMARKS
 
BOSTON PTCLDY 60 53 77 S6 30.23S  
WORCESTER CLEAR 61 46 57 W14 30.24S  
WESTFIELD CLEAR 56 50 80 SW3 30.23S  
PROVINCETOWN CLEAR 49 46 90 CALM 30.25R  
NANTUCKET CLEAR 53 48 83 N6 30.24R  

 
 
ANZ330-335-338-340-345-350-353-355-261000-  
COASTAL MARINE OBSERVATIONS  
 
 
STATION/POSITION TIME SKY/WX TEMP WIND PRES VSBY WAVE
 
AIR SEA DIR/SP/G HT/PER  
(UTC) (F) (DEG/KT/KT) (MB) (MI) (FT/S)  
NY HARB ENTRANCE 0750 68 70 290/ 4/ 6 1023.5 3/ 6  
20S FIRE ISLAND 0750 66 67 310/ 4/ 6 1023.3 3/ 7  
GREAT SOUTH BAY 0800 66 75 330/ 6/ 8 N/A  
23 SSW MONTAUK P 0750 64 66 330/ 4/ 4 1023.8 3/ 6  
15 E BARNEGAT LI 0822 69 N/A 3/ 7  
HUDSON CANYON 0750 64 65 1022.6 4/ 7  
KINGS POINT 0800 66 67 1023.6  
EXECUTION ROCKS NOT AVBL  
CENTRAL LI SOUND NOT AVBL  
EASTERN LI SOUND 0800 60 61 10/ 4/ 4 N/A  
ROBBINS REEF 0818 67 230/ 1/ 2 1023.3  

 
 
>>>>>>>>>>>>>>>>>>>>>>>>>>>> KEY <<<<<<<<<<<<<<<<<<<<<<<<<<<  
> <  
> SKY/WX - SKY CONDITION/PRESENT WEATHER <  
> TMP - TEMPERATURE IN FAHRENHEIT <  
> DP - DEWPOINT IN FAHRENHEIT <  
> RH - RELATIVE HUMIDITY IN PERCENT <  
> WIND - DIRECTION AND SPEED IN MPH <  
> PRES - MEAN SEA LEVEL PRESSURE IN INCHES OF HG <  
> WCI - WIND CHILL INDEX <  
> VSB - VISIBILITY IN MILES <  
> HX - HEAT INDEX <  
> TC - TEMPERATURE IN CELSIUS <  
> VRB - VARIABLE WIND DIRECTION <  
> <  
>>>>>>>>>>>>>>>>>>>>>>>>>>>> KEY <<<<<<<<<<<<<<<<<<<<<<<<<<<  
 
 
 
CLICK HERE TO GO TO PREVIOUS BULLETINS.

The Nexlab NY Page
The Nexlab NJ Page
The Nexlab CT Page Main Text Page